WS6A-13 Weather Reports


time (UTC)temp
C
wind
direction
speed
KPH
gust
KPH
rain 1hr
cm
rain 24hr
cm
rain mn
cm
humidity
%
barometer
mb
20260831070004 22 136 0.0 0.0 0.00 0.00 0.00 92 1015.8
20260831064504 22 136 0.0 0.0 0.00 0.00 0.00 92 1015.9
20260831063004 22 136 0.0 0.0 0.00 0.00 0.00 92 1016.1
20260831061504 21 136 0.0 0.0 0.00 0.00 0.00 92 1016.3
20260831054504 21 136 0.0 0.0 0.00 0.00 0.00 91 1016.5
20260831053004 21 136 0.0 0.0 0.00 0.00 0.00 91 1016.5
20260831050004 22 136 0.0 0.0 0.00 0.00 0.00 91 1016.5
20260831044504 22 136 0.0 0.0 0.00 0.00 0.00 91 1016.4
20260831041504 22 136 0.0 0.0 0.00 0.00 0.00 91 1016.5
20260831040005 22 136 0.0 0.0 0.00 0.00 0.00 90 1016.5
20260831034504 22 136 0.0 0.0 0.00 0.00 0.00 90 1016.6
20260831033004 22 136 0.0 0.0 0.00 0.00 0.00 90 1016.6
20260831030004 22 136 0.0 0.0 0.00 0.00 0.00 91 1016.6
20260831024505 23 136 0.0 0.0 0.00 0.00 0.00 90 1016.7
20260831023004 23 136 0.0 0.0 0.00 0.00 0.00 90 1016.6
20260831020004 23 136 0.0 0.0 0.00 0.00 0.00 89 1016.6
20260831014520 23 136 0.0 0.0 0.00 0.00 0.00 89 1016.6
20260831013004 23 136 0.0 0.0 0.00 0.00 0.00 88 1016.6
20260831011504 23 136 0.0 0.0 0.00 0.00 0.00 88 1016.5
20260831010004 23 136 0.0 0.0 0.00 0.00 0.00 86 1016.3
20260831004503 23 136 0.0 0.0 0.00 0.00 0.00 85 1016.1
20260831003004 24 136 0.0 0.0 0.00 0.00 0.00 85 1016.0
20260831001504 25 136 0.0 0.0 0.00 0.00 0.00 84 1015.9
20260831000004 25 136 0.0 0.0 0.00 0.00 0.00 83 1015.9
20260830233004 26 136 0.0 0.0 0.00 0.00 0.00 81 1015.6
20260830231504 26 136 0.0 0.0 0.00 0.00 0.00 80 1015.5
20260830230004 26 136 0.0 0.0 0.00 0.00 0.00 81 1015.4
20260830224516 27 136 0.0 0.0 0.00 0.00 0.00 80 1015.3
20260830221504 27 136 0.0 0.0 0.00 0.00 0.00 77 1015.0
20260830220004 27 136 0.0 0.0 0.00 0.00 0.00 77 1015.3
20260830214504 28 136 0.0 0.0 0.00 0.00 0.00 74 1015.4
20260830213004 28 136 0.0 0.0 0.00 0.00 0.00 73 1015.5
20260830211504 28 136 0.0 0.0 0.00 0.00 0.00 71 1015.4
20260830210004 28 136 0.0 0.0 0.00 0.00 0.00 73 1015.4
20260830201504 29 150 0.0 0.0 0.00 0.00 0.00 69 1016.1
20260830194504 29 150 0.0 0.0 0.00 0.00 0.00 68 1016.8
20260830193005 29 150 0.0 0.0 0.00 0.00 0.00 64 1017.1
20260830191503 29 39 0.0 4.8 0.00 0.00 0.00 66 1017.5
20260830190004 29 83 0.0 3.2 0.00 0.00 0.00 68 1017.8
20260830184504 29 65 0.0 3.2 0.00 0.00 0.00 66 1017.9
20260830183004 29 64 0.0 4.8 0.00 0.00 0.00 66 1018.1
20260830181504 29 109 0.0 3.2 0.00 0.00 0.00 67 1018.1
20260830180004 30 263 1.6 8.0 0.00 0.00 0.00 63 1018.2
20260830174504 30 90 0.0 4.8 0.00 0.00 0.00 68 1018.4
20260830173004 30 73 0.0 3.2 0.00 0.00 0.00 65 1018.4
20260830171504 30 71 1.6 11.3 0.00 0.00 0.00 63 1018.6
20260830170004 30 27 0.0 0.0 0.00 0.00 0.00 70 1018.6
20260830164504 29 54 0.0 0.0 0.00 0.00 0.00 70 1018.6
20260830163005 29 53 0.0 0.0 0.00 0.00 0.00 71 1018.6
20260830161504 29 334 0.0 0.0 0.00 0.00 0.00 69 1018.5
20260830160004 28 323 0.0 0.0 0.00 0.00 0.00 77 1018.6
20260830154504 28 323 0.0 0.0 0.00 0.00 0.00 76 1018.4
20260830153004 27 323 0.0 0.0 0.00 0.00 0.00 75 1018.4
20260830151504 27 323 0.0 0.0 0.00 0.00 0.00 75 1018.2
20260830150004 26 321 0.0 0.0 0.00 0.00 0.00 78 1018.1
20260830144504 25 321 0.0 0.0 0.00 0.00 0.00 81 1017.8
20260830143004 24 321 0.0 0.0 0.00 0.00 0.00 84 1017.8
20260830140004 23 321 0.0 0.0 0.00 0.00 0.00 87 1017.5
20260830134503 22 321 0.0 0.0 0.00 0.00 0.00 89 1017.6
20260830133004 21 324 0.0 0.0 0.00 0.00 0.00 92 1017.5
20260830131504 20 324 0.0 1.6 0.00 0.00 0.00 93 1017.7
20260830130005 20 324 0.0 0.0 0.00 0.00 0.00 95 1017.8
20260830124504 19 324 0.0 0.0 0.00 0.00 0.00 95 1017.9
20260830123003 19 324 0.0 0.0 0.00 0.00 0.00 94 1018.1
20260830121504 18 324 0.0 0.0 0.00 0.00 0.00 94 1018.0
20260830120004 18 324 0.0 0.0 0.00 0.00 0.00 93 1018.0
20260830113004 18 324 0.0 0.0 0.00 0.00 0.00 92 1017.8
20260830111504 18 324 0.0 0.0 0.00 0.00 0.00 92 1017.6
20260830110005 18 324 0.0 0.0 0.00 0.00 0.00 92 1017.5
20260830104504 18 324 0.0 0.0 0.00 0.00 0.00 92 1017.5
20260830101504 18 324 0.0 0.0 0.00 0.00 0.00 91 1017.2
20260830100004 18 324 0.0 0.0 0.00 0.00 0.00 91 1017.4
20260830094504 18 324 0.0 0.0 0.00 0.00 0.00 91 1017.3
20260830090004 19 324 0.0 0.0 0.00 0.00 0.00 92 1017.3
20260830084504 19 324 0.0 0.0 0.00 0.00 0.00 92 1017.3
20260830083004 18 324 0.0 0.0 0.00 0.00 0.00 92 1017.3
20260830081504 18 324 0.0 0.0 0.00 0.00 0.00 92 1017.3
20260830080005 18 324 0.0 0.0 0.00 0.00 0.00 92 1017.5
20260830074504 18 324 0.0 0.0 0.00 0.00 0.00 92 1017.5
20260830073004 18 324 0.0 0.0 0.00 0.00 0.00 92 1017.5